Hourly Weather Abramivka

Today, 19 June, Saturday

Time Temperature Precipitation Wind Pressure Humidity
00:00 +18°C° 0 mm 3 mps 753 mmHg 91%
01:00 +18°C° 0 mm 3 mps 753 mmHg 92%
02:00 +17°C° 0 mm 3 mps 753 mmHg 94%
03:00 +17°C° 0 mm 3 mps 753 mmHg 94%
04:00 +18°C° 0 mm 3 mps 753 mmHg 93%
05:00 +18°C° 0 mm 3 mps 753 mmHg 93%
06:00 +19°C° 0 mm 3 mps 753 mmHg 87%
07:00 +21°C° 0 mm 4 mps 753 mmHg 80%
08:00 +22°C° 0 mm 4 mps 753 mmHg 74%
09:00 +25°C° 0.1 mm 4 mps 753 mmHg 69%
10:00 +26°C° 0.1 mm 5 mps 753 mmHg 64%
11:00 +27°C° 0.1 mm 5 mps 753 mmHg 59%
12:00 +28°C° 0.2 mm 5 mps 753 mmHg 57%
13:00 +28°C° 0.2 mm 5 mps 752 mmHg 56%
14:00 +29°C° 0 mm 5 mps 752 mmHg 52%
15:00 +29°C° 0.1 mm 5 mps 752 mmHg 55%
16:00 +29°C° 0.1 mm 5 mps 752 mmHg 58%
17:00 +28°C° 0.1 mm 5 mps 752 mmHg 61%
18:00 +27°C° 0.2 mm 4 mps 752 mmHg 68%
19:00 +26°C° 0.2 mm 4 mps 752 mmHg 74%
20:00 +24°C° 0.2 mm 3 mps 752 mmHg 81%
21:00 +22°C° 0 mm 3 mps 752 mmHg 84%
22:00 +22°C° 0 mm 4 mps 752 mmHg 86%
23:00 +21°C° 0 mm 4 mps 752 mmHg 89%

Tomorrow, 20 June, Sunday

Time Temperature Precipitation Wind Pressure Humidity
00:00 +21°C° 0 mm 3 mps 751 mmHg 91%
01:00 +20°C° 0 mm 3 mps 751 mmHg 92%
02:00 +20°C° 0 mm 3 mps 751 mmHg 94%
03:00 +20°C° 0 mm 3 mps 751 mmHg 94%
04:00 +20°C° 0 mm 3 mps 751 mmHg 94%
05:00 +19°C° 0 mm 3 mps 751 mmHg 94%
06:00 +21°C° 0 mm 4 mps 751 mmHg 86%
07:00 +22°C° 0 mm 4 mps 751 mmHg 78%
08:00 +23°C° 0 mm 5 mps 751 mmHg 70%
09:00 +26°C° 0 mm 5 mps 751 mmHg 64%
10:00 +27°C° 0 mm 6 mps 751 mmHg 58%
11:00 +28°C° 0 mm 6 mps 750 mmHg 51%
12:00 +28°C° 0 mm 6 mps 750 mmHg 50%
13:00 +29°C° 0 mm 6 mps 750 mmHg 49%
14:00 +29°C° 0 mm 6 mps 750 mmHg 49%
15:00 +28°C° 0 mm 6 mps 750 mmHg 52%
16:00 +28°C° 0 mm 6 mps 750 mmHg 56%
17:00 +27°C° 0 mm 6 mps 750 mmHg 60%
18:00 +26°C° 0 mm 5 mps 750 mmHg 66%
19:00 +23°C° 0 mm 5 mps 750 mmHg 72%
20:00 +22°C° 0 mm 4 mps 750 mmHg 78%
21:00 +21°C° 0 mm 3 mps 750 mmHg 83%
22:00 +20°C° 0 mm 3 mps 749 mmHg 87%
23:00 +19°C° 0 mm 2 mps 749 mmHg 91%

Day after tomorrow, 21 June, Monday

Time Temperature Precipitation Wind Pressure Humidity
00:00 +19°C° 0 mm 2 mps 749 mmHg 92%
01:00 +18°C° 0 mm 2 mps 749 mmHg 94%
02:00 +18°C° 0 mm 2 mps 749 mmHg 95%
03:00 +18°C° 0 mm 2 mps 749 mmHg 95%
04:00 +18°C° 0 mm 2 mps 749 mmHg 94%
05:00 +18°C° 0 mm 2 mps 749 mmHg 94%
06:00 +20°C° 0 mm 2 mps 749 mmHg 86%
07:00 +21°C° 0 mm 3 mps 749 mmHg 79%
08:00 +24°C° 0 mm 3 mps 749 mmHg 72%
09:00 +26°C° 0 mm 3 mps 748 mmHg 66%
10:00 +27°C° 0 mm 3 mps 748 mmHg 61%
11:00 +28°C° 0 mm 3 mps 748 mmHg 56%
12:00 +29°C° 0 mm 3 mps 748 mmHg 54%
13:00 +30°C° 0 mm 3 mps 748 mmHg 53%
14:00 +30°C° 0 mm 3 mps 748 mmHg 51%
15:00 +30°C° 0 mm 3 mps 748 mmHg 54%
16:00 +30°C° 0 mm 3 mps 747 mmHg 57%
17:00 +29°C° 0 mm 3 mps 747 mmHg 60%
18:00 +28°C° 0 mm 3 mps 747 mmHg 66%
19:00 +26°C° 0 mm 3 mps 748 mmHg 73%
20:00 +25°C° 0 mm 2 mps 748 mmHg 80%
21:00 +24°C° 0 mm 2 mps 748 mmHg 83%
22:00 +23°C° 0 mm 2 mps 748 mmHg 86%
23:00 +23°C° 0 mm 2 mps 748 mmHg 89%

22 June, Tuesday

Time Temperature Precipitation Wind Pressure Humidity
00:00 +21°C° 0 mm 2 mps 748 mmHg 90%
01:00 +21°C° 0 mm 2 mps 748 mmHg 91%
02:00 +21°C° 0 mm 2 mps 748 mmHg 92%
03:00 +21°C° 0 mm 2 mps 748 mmHg 92%
04:00 +22°C° 0 mm 1 mps 748 mmHg 91%
05:00 +22°C° 0 mm 1 mps 748 mmHg 91%
06:00 +23°C° 0 mm 2 mps 748 mmHg 84%
07:00 +25°C° 0 mm 2 mps 748 mmHg 77%
08:00 +26°C° 0 mm 2 mps 748 mmHg 70%
09:00 +28°C° 0 mm 2 mps 748 mmHg 64%
10:00 +29°C° 0 mm 2 mps 748 mmHg 59%
11:00 +31°C° 0 mm 2 mps 748 mmHg 53%
12:00 +31°C° 0 mm 3 mps 748 mmHg 51%
13:00 +31°C° 0 mm 3 mps 748 mmHg 50%
14:00 +33°C° 0 mm 4 mps 748 mmHg 48%
15:00 +32°C° 0 mm 4 mps 748 mmHg 51%
16:00 +30°C° 0 mm 4 mps 748 mmHg 53%
17:00 +30°C° 0 mm 4 mps 748 mmHg 56%
18:00 +28°C° 0 mm 4 mps 748 mmHg 63%
19:00 +26°C° 0 mm 3 mps 748 mmHg 70%
20:00 +25°C° 0 mm 3 mps 748 mmHg 76%
21:00 +24°C° 0 mm 3 mps 748 mmHg 80%
22:00 +23°C° 0 mm 2 mps 748 mmHg 83%
23:00 +21°C° 0 mm 2 mps 749 mmHg 86%

23 June, Wednesday

Time Temperature Precipitation Wind Pressure Humidity
00:00 +21°C° 0 mm 2 mps 749 mmHg 87%
01:00 +20°C° 0 mm 2 mps 749 mmHg 88%
02:00 +20°C° 0 mm 2 mps 749 mmHg 89%
03:00 +20°C° 0 mm 2 mps 749 mmHg 89%
04:00 +20°C° 0 mm 2 mps 749 mmHg 89%
05:00 +20°C° 0 mm 2 mps 749 mmHg 90%
06:00 +23°C° 0 mm 2 mps 749 mmHg 82%
07:00 +25°C° 0 mm 2 mps 749 mmHg 74%
08:00 +27°C° 0 mm 3 mps 749 mmHg 66%
09:00 +29°C° 0 mm 3 mps 749 mmHg 61%
10:00 +30°C° 0 mm 3 mps 749 mmHg 56%
11:00 +33°C° 0 mm 3 mps 749 mmHg 51%
12:00 +33°C° 0 mm 3 mps 749 mmHg 48%
13:00 +34°C° 0 mm 4 mps 749 mmHg 45%
14:00 +35°C° 0 mm 4 mps 749 mmHg 43%
15:00 +34°C° 0 mm 4 mps 749 mmHg 46%
16:00 +33°C° 0 mm 4 mps 749 mmHg 50%
17:00 +33°C° 0 mm 4 mps 749 mmHg 53%
18:00 +30°C° 0 mm 3 mps 749 mmHg 61%
19:00 +28°C° 0 mm 3 mps 749 mmHg 68%
20:00 +27°C° 0 mm 2 mps 750 mmHg 76%
21:00 +26°C° 0 mm 2 mps 750 mmHg 80%
22:00 +25°C° 0 mm 2 mps 750 mmHg 84%
23:00 +24°C° 0 mm 3 mps 750 mmHg 89%

24 June, Thursday

Time Temperature Precipitation Wind Pressure Humidity
00:00 +24°C° 0 mm 2 mps 750 mmHg 89%
01:00 +23°C° 0 mm 2 mps 750 mmHg 90%
02:00 +22°C° 0 mm 1 mps 750 mmHg 90%
03:00 +21°C° 0 mm 2 mps 750 mmHg 90%
04:00 +21°C° 0 mm 2 mps 750 mmHg 89%
05:00 +21°C° 0 mm 2 mps 750 mmHg 89%
06:00 +24°C° 0 mm 2 mps 750 mmHg 81%
07:00 +26°C° 0 mm 3 mps 750 mmHg 72%
08:00 +27°C° 0 mm 3 mps 751 mmHg 64%
09:00 +29°C° 0 mm 3 mps 751 mmHg 58%
10:00 +30°C° 0 mm 4 mps 751 mmHg 52%
11:00 +32°C° 0 mm 4 mps 750 mmHg 46%
12:00 +33°C° 0 mm 4 mps 750 mmHg 45%
13:00 +33°C° 0 mm 4 mps 750 mmHg 45%
14:00 +34°C° 0 mm 4 mps 750 mmHg 44%
15:00 +33°C° 0 mm 4 mps 750 mmHg 47%
16:00 +33°C° 0 mm 3 mps 750 mmHg 50%
17:00 +33°C° 0 mm 3 mps 750 mmHg 54%
18:00 +30°C° 0.2 mm 3 mps 750 mmHg 62%
19:00 +28°C° 0.2 mm 2 mps 750 mmHg 71%
20:00 +26°C° 0.2 mm 2 mps 750 mmHg 79%
21:00 +25°C° 0.3 mm 2 mps 749 mmHg 82%
22:00 +24°C° 0.3 mm 2 mps 749 mmHg 84%
23:00 +23°C° 0.3 mm 2 mps 749 mmHg 87%
Show more